Home   Weather   Mistelbach   Past weeks

Flag for Austria Past Weather in Mistelbach, Lower Austria, Austria — Yesterday and Last 2 Weeks

Now
43 °F

Overcast.


Feels Like: 43 °F
Forecast: 40 / 56 °F
Wind: 2 mph from Northeast

Location: Wien / Hohe Warte

Current Time: Apr 25, 2017 at 3:13:12 am

Latest Report: Apr 25, 2017 at 2:00 am


Visibility: 17 mi

Pressure: 29.85 "Hg

Humidity: 88%

Dew Point: 40 °F

Location of MistelbachLocation

Past Weather in Mistelbach — Graph

°F

Mistelbach Temperature Yesterday

Maximum temperature yesterday: 61 °F (at 5:00 pm)
Minimum temperature yesterday: 38 °F (at 5:00 am)
Average temperature yesterday: 50 °F

High & Low Weather Summary for the Past Weeks

 TemperatureHumidityPressure
High72 °F (Apr 10, 5:00 pm)97% (Apr 17, 11:00 pm)30.50 "Hg (Apr 17, 11:00 pm)
Low34 °F (Apr 19, 8:00 am)35% (Apr 16, 12:00 pm)29.80 "Hg (Apr 13, 6:00 am)
Average48 °F64%30.08 "Hg
* Reported Apr 10 1:00 am — Apr 25 1:00 am, Mistelbach, Weather by CustomWeather, © 2017

Note: Actual official high and low records may vary slightly from our data, if they occured in-between our weather recording intervals... More about our weather records

Advertising

Mistelbach Weather History for the Previous 24 Hours

Scroll right to see more
 ConditionsComfort  
Time TempWeatherWind HumidityBarometerVisibility
1:00 am
Tue, Apr 25
44 °FQuite cool.1 mph85%29.86 "HgN/A
12:00 am46 °FCool.2 mph80%29.87 "HgN/A
11:00 pm
Mon, Apr 24
47 °FPassing clouds.No wind77%29.89 "Hg22 mi
9:00 pm53 °FPassing clouds.1 mph60%29.91 "Hg25 mi
8:00 pm57 °FPassing clouds.2 mph50%29.91 "Hg34 mi
7:00 pm59 °FPartly sunny.2 mph44%29.92 "Hg34 mi
6:00 pm60 °FPartly sunny.3 mph42%29.93 "Hg31 mi
5:00 pm61 °FPassing clouds.5 mph44%29.96 "Hg37 mi
4:00 pm59 °FPassing clouds.5 mph44%29.99 "Hg37 mi
3:00 pm58 °FPassing clouds.3 mph45%30.03 "Hg31 mi
2:00 pm57 °FRefreshingly cool.3 mph42%30.06 "HgN/A
1:00 pm55 °FPassing clouds.3 mph43%30.09 "Hg31 mi
12:00 pm54 °FPassing clouds.5 mph46%30.12 "Hg31 mi
11:00 am52 °FPassing clouds.2 mph45%30.15 "Hg31 mi
10:00 am49 °FScattered clouds.3 mph50%30.16 "Hg31 mi
9:00 am48 °FPassing clouds.1 mph48%30.18 "Hg31 mi
8:00 am46 °FPassing clouds.3 mph51%30.19 "Hg28 mi
7:00 am40 °FPassing clouds.2 mph68%30.20 "Hg28 mi
6:00 am38 °FChilly.5 mph69%30.20 "HgN/A
5:00 am38 °FChilly.5 mph68%30.20 "HgN/A
4:00 am39 °FChilly.5 mph67%30.21 "HgN/A
3:00 am39 °FChilly.5 mph66%30.21 "HgN/A
Weather by CustomWeather, © 2017

See weather overviewHow to use our weather pages